CPT4218 PHLI-PHNL

Flight info

Callsign CPT4218
Flight time 0h 33m
Altitude 6000
Route LIH ZIKAB V15 BOOKE BOOKE8
Aircraft C208/L-VGD/C

Departure

Time 2026-04-21 13:23
Airport Lihue Airport (PHLI)

Arrival

Time 2026-04-21 13:56
Airport Daniel K. Inouye International Airport (PHNL)
Time Latitude Longitude Altitude Speed Heading
2026-04-21 13:20 21.97557 -159.34968 158 ft 0 kts 44°
2026-04-21 13:21 21.97608 -159.34910 158 ft 25 kts 45°
2026-04-21 13:21 21.97625 -159.34789 158 ft 24 kts 161°
2026-04-21 13:21 21.97457 -159.34870 158 ft 33 kts 226°
2026-04-21 13:22 21.97331 -159.34930 158 ft 17 kts 135°
2026-04-21 13:22 21.97349 -159.34819 158 ft 20 kts 44°
2026-04-21 13:22 21.97617 -159.34535 158 ft 93 kts 45°
2026-04-21 13:22 21.98190 -159.33926 277 ft 126 kts 45°
2026-04-21 13:23 21.98539 -159.33020 440 ft 144 kts 90°
2026-04-21 13:23 21.98109 -159.32054 713 ft 149 kts 134°
2026-04-21 13:23 21.97299 -159.31339 990 ft 153 kts 142°
2026-04-21 13:23 21.96430 -159.30642 1250 ft 157 kts 142°
2026-04-21 13:24 21.95547 -159.29929 1508 ft 160 kts 142°
2026-04-21 13:24 21.94676 -159.29165 1764 ft 162 kts 137°
2026-04-21 13:24 21.93891 -159.28307 2016 ft 164 kts 131°
2026-04-21 13:24 21.93166 -159.27354 2269 ft 165 kts 127°
2026-04-21 13:25 21.92495 -159.26355 2520 ft 165 kts 124°
2026-04-21 13:25 21.91855 -159.25329 2771 ft 165 kts 123°
2026-04-21 13:25 21.91235 -159.24289 3023 ft 165 kts 122°
2026-04-21 13:25 21.90628 -159.23244 3272 ft 165 kts 122°
2026-04-21 13:26 21.90026 -159.22194 3521 ft 165 kts 122°
2026-04-21 13:26 21.89436 -159.21155 3768 ft 165 kts 121°
2026-04-21 13:26 21.88841 -159.20103 4018 ft 165 kts 121°
2026-04-21 13:26 21.88249 -159.19052 4267 ft 165 kts 121°
2026-04-21 13:27 21.87653 -159.17994 4519 ft 165 kts 121°
2026-04-21 13:27 21.87059 -159.16940 4772 ft 164 kts 121°
2026-04-21 13:27 21.86469 -159.15890 5021 ft 164 kts 121°
2026-04-21 13:27 21.85878 -159.14839 5270 ft 164 kts 121°
2026-04-21 13:28 21.85286 -159.13788 5521 ft 164 kts 121°
2026-04-21 13:28 21.84695 -159.12738 5770 ft 164 kts 121°
2026-04-21 13:28 21.84105 -159.11688 6020 ft 164 kts 121°
2026-04-21 13:28 21.83516 -159.10641 6269 ft 164 kts 121°
2026-04-21 13:29 21.82932 -159.09604 6515 ft 164 kts 121°
2026-04-21 13:29 21.82342 -159.08556 6761 ft 165 kts 121°
2026-04-21 13:29 21.81738 -159.07483 6915 ft 170 kts 121°
2026-04-21 13:29 21.81118 -159.06383 6989 ft 176 kts 121°
2026-04-21 13:30 21.80471 -159.05237 7004 ft 182 kts 121°
2026-04-21 13:30 21.79805 -159.04055 7005 ft 186 kts 121°
2026-04-21 13:30 21.79129 -159.02859 7003 ft 188 kts 121°
2026-04-21 13:30 21.78447 -159.01650 7003 ft 190 kts 121°
2026-04-21 13:31 21.77768 -159.00447 7002 ft 191 kts 121°
2026-04-21 13:31 21.77080 -158.99228 7002 ft 191 kts 121°
2026-04-21 13:31 21.76389 -158.98002 7002 ft 191 kts 121°
2026-04-21 13:31 21.75698 -158.96778 7002 ft 192 kts 121°
2026-04-21 13:32 21.75007 -158.95553 7002 ft 192 kts 121°
2026-04-21 13:32 21.74314 -158.94327 7002 ft 192 kts 121°
2026-04-21 13:32 21.73631 -158.93119 7002 ft 192 kts 121°
2026-04-21 13:32 21.72939 -158.91895 7002 ft 192 kts 121°
2026-04-21 13:33 21.72247 -158.90672 7002 ft 192 kts 121°
2026-04-21 13:33 21.71552 -158.89443 7002 ft 192 kts 121°
2026-04-21 13:33 21.70859 -158.88218 7003 ft 192 kts 121°
2026-04-21 13:33 21.70166 -158.86993 7003 ft 192 kts 121°
2026-04-21 13:34 21.69473 -158.85768 7003 ft 192 kts 121°
2026-04-21 13:34 21.68780 -158.84543 7003 ft 192 kts 121°
2026-04-21 13:34 21.68086 -158.83318 7003 ft 192 kts 121°
2026-04-21 13:34 21.67392 -158.82091 7003 ft 192 kts 121°
2026-04-21 13:35 21.66709 -158.80885 7004 ft 192 kts 121°
2026-04-21 13:35 21.66015 -158.79660 7004 ft 192 kts 121°
2026-04-21 13:35 21.65321 -158.78436 7004 ft 192 kts 121°
2026-04-21 13:35 21.64627 -158.77211 7004 ft 192 kts 121°
2026-04-21 13:36 21.63933 -158.75987 7004 ft 192 kts 121°
2026-04-21 13:36 21.63240 -158.74764 7005 ft 192 kts 121°
2026-04-21 13:36 21.62779 -158.73952 7005 ft 192 kts 121°
2026-04-21 13:36 21.62086 -158.72729 7005 ft 192 kts 121°
2026-04-21 13:37 21.61390 -158.71503 7005 ft 192 kts 121°
2026-04-21 13:37 21.60471 -158.69883 7005 ft 192 kts 121°
2026-04-21 13:37 21.59777 -158.68660 7006 ft 192 kts 121°
2026-04-21 13:37 21.59082 -158.67437 7006 ft 192 kts 121°
2026-04-21 13:38 21.58613 -158.66609 7006 ft 192 kts 121°
2026-04-21 13:38 21.57927 -158.65402 7006 ft 192 kts 121°
2026-04-21 13:38 21.57232 -158.64179 7006 ft 192 kts 121°
2026-04-21 13:38 21.56538 -158.62957 7006 ft 192 kts 121°
2026-04-21 13:39 21.55841 -158.61731 7007 ft 192 kts 121°
2026-04-21 13:39 21.55146 -158.60508 7007 ft 192 kts 121°
2026-04-21 13:39 21.54450 -158.59285 7007 ft 192 kts 121°
2026-04-21 13:39 21.53755 -158.58062 7007 ft 192 kts 121°
2026-04-21 13:40 21.53067 -158.56853 7007 ft 192 kts 121°
2026-04-21 13:40 21.52367 -158.55625 6989 ft 193 kts 121°
2026-04-21 13:40 21.51435 -158.53986 7005 ft 192 kts 121°
2026-04-21 13:40 21.50975 -158.53176 7007 ft 192 kts 121°
2026-04-21 13:41 21.50279 -158.51953 7008 ft 192 kts 121°
2026-04-21 13:41 21.49583 -158.50731 7008 ft 192 kts 121°
2026-04-21 13:41 21.48886 -158.49507 7008 ft 192 kts 121°
2026-04-21 13:41 21.48200 -158.48302 7008 ft 192 kts 121°
2026-04-21 13:42 21.47503 -158.47079 6999 ft 192 kts 121°
2026-04-21 13:42 21.46804 -158.45852 6997 ft 192 kts 121°
2026-04-21 13:42 21.46106 -158.44628 6996 ft 192 kts 121°
2026-04-21 13:42 21.45408 -158.43403 6996 ft 192 kts 121°
2026-04-21 13:43 21.44721 -158.42198 6996 ft 192 kts 121°
2026-04-21 13:43 21.44015 -158.40959 6996 ft 192 kts 121°
2026-04-21 13:43 21.43319 -158.39738 6995 ft 192 kts 121°
2026-04-21 13:43 21.42858 -158.38930 6995 ft 192 kts 121°
2026-04-21 13:44 21.42246 -158.37857 6995 ft 192 kts 121°
2026-04-21 13:44 21.41549 -158.36634 6995 ft 192 kts 121°
2026-04-21 13:44 21.40846 -158.35401 6995 ft 192 kts 121°
2026-04-21 13:44 21.40146 -158.34175 6995 ft 192 kts 121°
2026-04-21 13:45 21.39456 -158.32965 6906 ft 194 kts 121°
2026-04-21 13:45 21.38755 -158.31738 6655 ft 192 kts 121°
2026-04-21 13:45 21.38060 -158.30521 6408 ft 191 kts 121°
2026-04-21 13:45 21.37371 -158.29314 6162 ft 189 kts 121°
2026-04-21 13:46 21.36685 -158.28113 5916 ft 188 kts 121°
2026-04-21 13:46 21.36003 -158.26919 5669 ft 187 kts 121°
2026-04-21 13:46 21.35303 -158.25740 5423 ft 186 kts 123°
2026-04-21 13:46 21.34603 -158.24603 5181 ft 185 kts 123°
2026-04-21 13:47 21.33889 -158.23451 4935 ft 184 kts 123°
2026-04-21 13:47 21.33182 -158.22311 4689 ft 183 kts 123°
2026-04-21 13:47 21.32476 -158.21171 4442 ft 183 kts 123°
2026-04-21 13:47 21.31778 -158.20044 4198 ft 182 kts 123°
2026-04-21 13:48 21.31079 -158.18913 3951 ft 181 kts 123°
2026-04-21 13:48 21.30600 -158.18136 3781 ft 180 kts 123°
2026-04-21 13:48 21.29921 -158.17032 3540 ft 184 kts 123°
2026-04-21 13:48 21.29187 -158.15839 3297 ft 190 kts 123°
2026-04-21 13:49 21.28718 -158.15075 3142 ft 192 kts 123°
2026-04-21 13:49 21.28184 -158.14204 2965 ft 193 kts 123°
2026-04-21 13:49 21.27443 -158.13000 2719 ft 194 kts 124°
2026-04-21 13:49 21.26701 -158.11792 2471 ft 194 kts 123°
2026-04-21 13:50 21.25958 -158.10579 2231 ft 194 kts 123°
2026-04-21 13:50 21.25229 -158.09388 2080 ft 189 kts 123°
2026-04-21 13:50 21.24522 -158.08225 2016 ft 182 kts 123°
2026-04-21 13:50 21.23840 -158.07105 2001 ft 177 kts 123°
2026-04-21 13:51 21.23183 -158.06021 1994 ft 174 kts 123°
2026-04-21 13:51 21.22527 -158.04941 2000 ft 173 kts 123°
2026-04-21 13:51 21.21880 -158.03856 2001 ft 169 kts 121°
2026-04-21 13:51 21.21720 -158.02723 1899 ft 150 kts 81°
2026-04-21 13:52 21.22340 -158.01935 1857 ft 139 kts 36°
2026-04-21 13:52 21.23224 -158.01682 1902 ft 119 kts 18°
2026-04-21 13:52 21.24003 -158.01479 1896 ft 115 kts 22°
2026-04-21 13:52 21.24743 -158.01229 2034 ft 114 kts 26°
2026-04-21 13:53 21.25450 -158.00839 2013 ft 120 kts 40°
2026-04-21 13:53 21.26167 -158.00205 1835 ft 132 kts 51°
2026-04-21 13:53 21.26743 -157.99527 1676 ft 124 kts 54°
2026-04-21 13:53 21.27278 -157.98786 1392 ft 122 kts 62°
2026-04-21 13:54 21.27535 -157.98346 1242 ft 121 kts 63°
2026-04-21 13:54 21.28004 -157.97597 985 ft 121 kts 60°
2026-04-21 13:54 21.28497 -157.96884 790 ft 115 kts 59°
2026-04-21 13:54 21.28974 -157.96215 603 ft 111 kts 57°
2026-04-21 13:55 21.29451 -157.95590 384 ft 109 kts 57°
2026-04-21 13:55 21.29894 -157.94905 290 ft 115 kts 60°
2026-04-21 13:55 21.30367 -157.94228 249 ft 112 kts 58°
2026-04-21 13:55 21.30807 -157.93553 129 ft 108 kts 60°
2026-04-21 13:56 21.31244 -157.92928 57 ft 101 kts 59°
2026-04-21 13:56 21.31634 -157.92369 18 ft 86 kts 59°
2026-04-21 13:56 21.31864 -157.92030 18 ft 39 kts 57°
2026-04-21 13:56 21.31936 -157.91867 18 ft 17 kts 136°
2026-04-21 13:57 21.31836 -157.91812 18 ft 15 kts 178°
2026-04-21 13:57 21.31809 -157.91826 18 ft 0 kts 242°
2026-04-21 13:58 21.31781 -157.91872 18 ft 22 kts 232°
2026-04-21 13:58 21.31746 -157.91915 18 ft 0 kts 226°